Погода Верхняя Гутара

Погода Верхняя Гутара : погода сейчас, прогноз погоды и архив. Всё, что Вы хотите узнать о погоде Верхняя Гутара!

Поиск расширенной информации на нашем сайте:

Другие новости

Новости СМИ2

Главная страница сайта

Новости сайта

03.07.2017

Напоминаем, что на нашем специализированном сайте Метеоцентр.Азия вы можете получить высокодетализированные автоматические прогнозы погоды по пунктам России, СНГ и мира в авиационном формате (включающие направление и скорость ветра, видимость, явления погоды, количество и форму облачности, нижнюю и верхнюю границу облачности).

Рекомендуем: купить упаковку для тортов в Москве

Погода Верхняя Гутара - сегодня

Время (UTC), дата Ветер
(°,м/с) 
Видим.   Явления Облачность Т
(°С)
Тd
(°С)
f(%) Тe
(°С)
Pmin
(гПа)
dP
(гПа)
Po
(мм)
O2
(г/м3)
Тmin Tmax R s Состояние
почвы
06 16.10.17 тихо ()   20000 м    10/0 средняя 
[Ac As]
+7.6 -3.5 45 +8  1017.6  -1.7  678  266           
09 16.10.17 тихо ()   20000 м    10/0 средняя, верхняя 
[Ac lent|Cs]
+8 -4.4 41 +8  1015.8  -1.5  677  265           
12 16.10.17 тихо ()   20000 м    10/0 средняя, верхняя 
[Ac lent|Ci fib]
+2.9 +0.6 85 +3  1018.3  0.3  677  270    +10.8       
15 16.10.17 тихо ()   20000 м    10/0 верхняя 
[Ci fib]
+0.5 -3.1 77 +1  1019.6  0.3  677  273           
18 16.10.17 тихо ()   20000 м    10/4 1000 м средняя 
[Sc|As trans]
+0.3 -3 78 1020.6  0.8  678  273           
21 16.10.17 тихо ()   20000 м    10/4 1000 м кучево-дожд., верхняя 
[Cb cap|Ci fib]
+0.4 -1.6 86 1020.4  -0.2  678  273           
00 17.10.17 тихо ()   20000 м    10/8 600 м кучево-дожд., верхняя 
[Cb cap|Ci fib]
-0.3 -11.5 43 -0  1021.5  0.7  678  275  -1      мокрый или
старый снег
10-40% 
03 17.10.17 360 (С) 10 км    10/8 600 м кучево-дожд., средняя, верхняя 
[Cb cap|Ac trans|Ci fib]
+4.2 +1.7 84 +5  1020.9  1.3  679  269           
06 17.10.17 360 (С) 4000 м  осадки на расстоянии  10/10 600 м кучево-дожд. 
[Cb cap]
+5 +1.2 76 +5  1021.5  0.8  680  269           
09 17.10.17 тихо ()   4000 м  слаб. ливневой дождь  10/10 600 м кучево-дожд. 
[Cb cap]
+2.6 +2.1 96 +3  1024.1  1.4  681  271           
12 17.10.17 тихо ()   4000 м  туман на расстоянии{ливн. осадки}  10/8 600 м кучево-дожд., верхняя 
[Cb cap|Ci fib]
-0.2 -0.5 98 -0  1026.7  1.2  682  275    +5.1     
15 17.10.17 тихо ()   4000 м  туман на расстоянии  10/10 600 м кучево-дожд. 
[Cb cap]
+0.1 -0.2 98 1027.3  0.6  682  275           
18 17.10.17 тихо ()   4000 м  туман на расстоянии  10/10 600 м кучево-дожд. 
[Cb cap]
-0.1 -0.4 98 -0  1027.2  -0.2  682  275           
21 17.10.17 тихо ()   4000 м  туман на расстоянии  10/10 600 м кучево-дожд. 
[Cb cap]
-1.3 -2.4 92 -1  1026.9  -0.8  682  276           
00 18.10.17 тихо ()   2000 м    10/10 600 м 
[St]
-2 -3.5 89 -2  1026.9  -0.3  681  277  -2         
03 18.10.17 050 (СВ) 4000 м    9/9 600 м 
[St]
-0.3 -2.7 84 1025.5  -0.4  681  275           
06 18.10.17 360 (С) 20000 м    ясно 
+4.6 -1.7 64 +5  1021  -2.1  680  269           
09 18.10.17 тихо ()   20000 м    ясно 
+5.1 -2.4 58 +5  1018.3  -2.2  678  268           
12 18.10.17 тихо ()   20000 м    ясно 
-2.6 -3.9 91 -3  1022  0.2  678  276    +9.4       
15 18.10.17 тихо ()   20000 м    ясно 
-5 -5.6 96 -5  1023.2  678  279           
18 18.10.17 тихо ()   20000 м    ясно 
-6.4 -6.9 96 -6  1023.5  -0.3  678  280           
21 18.10.17 тихо ()   20000 м    ясно 
-7.4 -8 95 -7  1023.8  -0.3  678  281           
00 19.10.17 тихо ()   20000 м    ясно 
-7.8 -8.8 93 -8  1024.2  0.2  678  282  -8.2         
03 19.10.17 тихо ()   20000 м    ясно 
-2.3 -4.6 84 -2  1022.5  0.9  678  276           
06 19.10.17 тихо ()   20000 м    ясно 
+9.5 -2 44 +10  1015.8  -1.2  678  264           
Время (UTC), дата Ветер
(°,м/с) 
Видим.   Явления Облачность Т
(°С)
Тd
(°С)
f(%) Тe
(°С)
Pmin
(гПа)
dP
(гПа)
Po
(мм)
O2
(г/м3)
Тmin Tmax R s Состояние
почвы

Для получения пояснительной информации подведите курсор к названию столбца.

ПОГОДА Верхняя Гутара - архив

Всё, что Вы хотите узнать о погоде Верхняя Гутара - удобно и подробно!

Выберите нужную дату (начиная с 1 января 2015* года) и нажмите кнопку "Найти".
Будут отображены архивные сводки погоды по пункту Верхняя Гутара, начиная с указанной даты.


Отображать данные в формате CSV (для использования в таблицах Excel)


Внимание! Наш архив погоды предназначен исключительно для личного некоммерческого использования в познавательных целях. Если Вам необходимы официальные справки о состоянии погоды (для производственных, юридических, коммерческих и т.п. целей), обращайтесь в органы Росгидромета.

*Примечание: данная дата относится к архиву по метеостанциям СССР (Россия, СНГ, Балтия).
Архив по метеостанциям Зарубежной Европы и Азии (кроме Китая) хранится 10 дней, по другим регионам земного шара (Китай, Африка, Америка, Австралия, Океания) - 1 день.

Верхняя Гутара - район местоположения метеостанции


Название, широта, долгота, высота метеостанции:
Верхняя Гутара 54.2°ш. 97°д. 984 м над ур. моря [Российская Федерация]

Дополнительная информация

В oтличие oт бoльшинства пoгoдных сайтoв мы публикуем пoдрoбную метеoинфoрмацию в детальнoм прoфессиoнальнoм фoрмате.

Характеристики температуры и влажнoсти вoздуха измеряются на высoте 2 м в тени вдали oт зданий и деревьев.
Скoрoсть ветра измеряется на высoте 10 м (на урoвне рoста челoвека скoрoсть ветра ниже в 1.5-2 раза). Если метеoстанция нахoдится в гoрoде или в лесу, тo скoрoсть ветра занижена на 2-4 м/с пo сравнению с oткрытым местoм. Скoрoсть ветра над акватoриями крупных рек и oзёр, а также на вершинах хoлмoв на 2-5 м/с выше, чем в oбычных услoвиях.
Атмoсфернoе давление в разных тoчках местнoсти мoжет значительнo oтличаться oт давления на метеoстанции, в зависимoсти oт услoвий рельефа (при пoдъёме на 10 м давление пoнижается примернo на 1 мм рт.ст.).